Location: *
(51.4660°N, 0.3360°W)
Time: 16:27:51
(UTC+00:00)

Cosmos 2219 - Pass Details

Date: 19 September 2019
Orbit: 834 x 860 km, 71.1° (Epoch: 15 October)

Event Time Altitude Azimuth Distance (km) Brightness Sun altitude
Rises 20:32:05 0° 221° (SW) 3,426 6.5 -22.1°
Reaches altitude 10° 20:34:34 10° 226° (SW) 2,493 5.8 -22.4°
Maximum altitude 20:40:14 59° 305° (NW) 989 3.8 -23.1°
Drops below altitude 10° 20:45:55 10° 25° (NNE) 2,502 5.8 -23.8°
Sets 20:48:26 0° 30° (NNE) 3,439 6.5 -24.1°
